Regional Weather Roundup
Issued by NWS Charleston, WV

Home | Current Version | Previous Version | Graphics & Text | Print | Product List | Glossary On
Versions: 1 2 3 4 5 6 7 8 9 10 11 12 13 14 15 16 17 18 19 20 21 22 23 24 25 26 27
000
ASUS41 KRLX 230010
RWRRLX
West Virginia Regional Weather Roundup
National Weather Service Charleston WV
800 PM EDT TUE APR 22 2014

Note: "fair" indicates few or no clouds below 12,000 feet with no
significant weather and/or obstructions to visibility.

WVZ003-230100-
Northern Panhandle of West Virginia

CITY           SKY/WX    TMP DP  RH WIND       PRES   REMARKS
WHEELING       CLEAR     53  41  63 NW15G23   29.73R
$$

WVZ009-230100-
Northwest West Virginia

CITY           SKY/WX    TMP DP  RH WIND       PRES   REMARKS
PARKERSBURG    CLEAR     64  28  25 NW15G24   29.76R
$$

WVZ006-230100-
Western West Virginia

CITY           SKY/WX    TMP DP  RH WIND       PRES   REMARKS
HUNTINGTON     CLEAR     66  33  29 NW10G22   29.76R
$$

WVZ015-230100-
West Central West Virginia

CITY           SKY/WX    TMP DP  RH WIND       PRES   REMARKS
CHARLESTON     PTCLDY    69  36  29 NW20G28   29.72R
$$

WVZ031-230100-
North Central West Virginia

CITY           SKY/WX    TMP DP  RH WIND       PRES   REMARKS
CLARKSBURG     CLEAR     65  27  23 NW14      29.68R
MORGANTOWN     PTCLDY    61  45  55 N12G24    29.70R
$$

WVZ035-042-045-230100-
South Central West Virginia

CITY           SKY/WX    TMP DP  RH WIND       PRES   REMARKS
BECKLEY        CLOUDY    64  47  53 NW12      29.74R
BLUEFIELD      PTCLDY    65  46  50 NW9G22    29.77R
LEWISBURG      PTCLDY    65  41  41 W13G24    29.72R
$$

WVZ047-230100-
Northern Mountains of West Virginia

CITY           SKY/WX    TMP DP  RH WIND       PRES   REMARKS
ELKINS         MOCLDY    62  48  60 W8        29.70R
$$

WVZ052-230100-
Eastern Panhandle of West Virginia

CITY           SKY/WX    TMP DP  RH WIND       PRES   REMARKS
MARTINSBURG    LGT RAIN  57  52  83 N7        29.62R
PETERSBURG     MOCLDY    71  54  55 W10       29.65R
$$



USA.gov is the U.S. government's official web portal to all federal, state and local government web resources and services.